Location: Drawno
(53.2148°N, 15.7493°E)
Time: 22:43:26
(UTC+01:00)

ISS - Visible Passes

Search period start: 23 January 2019 00:00
Search period end: 02 February 2019 00:00
Orbit: 404 x 410 km, 51.6° (Epoch: 24 January)

Date Brightness Start Highest point End Pass type
(mag) Time Alt. Az. Time Alt. Az. Time Alt. Az.
23 Jan -1.2 18:40:27 10° S 18:41:05 13° S 18:41:05 13° S visible
24 Jan -1.3 17:50:45 10° SSE 17:51:28 10° SE 17:52:03 10° SE visible
24 Jan -0.9 19:24:13 10° SW 19:24:47 14° SW 19:24:47 14° SW visible
25 Jan -2.3 18:33:14 10° SSW 18:35:41 26° SSE 18:35:41 26° SSE visible
26 Jan -1.9 17:42:28 10° SSW 17:44:52 19° SSE 17:46:30 14° ESE visible
26 Jan -1.6 19:17:42 10° WSW 19:19:14 24° SW 19:19:14 24° SW visible
27 Jan -3.2 18:26:29 10° SW 18:29:37 41° SSE 18:29:59 39° SE visible
27 Jan -0.2 20:02:40 10° W 20:02:43 10° W 20:02:43 10° W visible
28 Jan -2.5 17:35:23 10° SW 17:38:20 30° SSE 17:40:43 14° E visible
28 Jan -2.3 19:11:18 10° WSW 19:13:26 36° WSW 19:13:26 36° WSW visible
29 Jan -3.5 18:19:57 10° WSW 18:23:13 56° SSE 18:24:07 39° ESE visible
29 Jan -0.5 19:56:20 10° W 19:56:50 14° W 19:56:50 14° W visible
30 Jan -3.1 17:28:39 10° WSW 17:31:50 46° SSE 17:34:47 12° E visible
30 Jan -2.9 19:04:55 10° W 19:07:30 49° WSW 19:07:30 49° WSW visible
31 Jan -3.7 18:13:30 10° W 18:16:47 67° S 18:18:09 32° ESE visible
31 Jan -0.8 19:49:58 10° W 19:50:52 17° W 19:50:52 17° W visible
01 Feb -3.5 17:22:06 10° WSW 17:25:22 61° S 17:28:38 10° E visible
01 Feb -3.3 18:58:30 10° W 19:01:32 56° SW 19:01:32 56° SW visible
